Location: Focicchia
(42.2496°N, 9.2935°E)
Time: 21:30:20
(UTC+00:00)

X-37B - Pass Details

Date: 03 August 2021
Orbit: 381 x 393 km, 45.0° (Epoch: 29 August)

Event Time Altitude Azimuth Distance (km) Brightness Sun altitude
Exits shadow 03:12:17 18° 250° (WSW) 1,009 2.1 -11.3°
Maximum altitude 03:14:28 88° 159° (SSE) 385 0.5 -10.9°
Drops below altitude 10° 03:17:36 10° 72° (ENE) 1,399 4.7 -10.5°
Sets 03:19:41 0° 72° (ENE) 2,254 6.1 -10.1°
